Location: Fort Hays State University
(38.8712°N, 99.3432°W)
Time: 22:08:19
(UTC-06:00)

Cosmos 2279 Rocket - Visible Passes

Search period start: 24 November 2017 00:00
Search period end: 04 December 2017 00:00
Orbit: 965 x 978 km, 82.9° (Epoch: 24 November)

Date Brightness Start Highest point End Pass type
(mag) Time Alt. Az. Time Alt. Az. Time Alt. Az.
24 Nov 5.7 06:42:31 10° N 06:48:10 34° ENE 06:53:47 10° SE visible
25 Nov 6.2 20:33:54 10° SSW 20:34:53 15° SSW 20:34:53 15° SSW visible
26 Nov 6.6 05:47:23 10° NNE 05:50:58 15° ENE 05:54:31 10° ESE visible
26 Nov 5.4 19:13:42 10° SSE 19:15:42 20° SE 19:15:42 20° SE visible
26 Nov 6.2 20:59:00 10° SW 21:00:23 16° SW 21:00:23 16° SW visible
27 Nov 6.0 06:10:25 10° NNE 06:15:42 28° ENE 06:20:55 10° SE visible
27 Nov 4.6 19:37:13 10° S 19:41:17 42° SSE 19:41:17 42° SSE visible
27 Nov 6.6 21:25:02 10° WSW 21:25:59 13° WSW 21:25:59 13° WSW visible
28 Nov 5.0 06:34:10 10° N 06:40:13 49° E 06:46:14 10° SSE visible
28 Nov 5.4 18:19:41 10° ESE 18:22:15 15° E 18:22:15 15° E visible
28 Nov 4.2 20:01:25 10° SSW 20:06:56 66° SW 20:06:56 66° SW visible
29 Nov 6.8 05:16:03 10° NE 05:18:22 12° ENE 05:20:42 10° E visible
29 Nov 4.1 06:58:18 10° N 07:04:35 88° E 07:10:50 10° S visible
29 Nov 4.7 18:41:49 10° SE 18:47:00 28° E 18:47:59 27° ENE visible
29 Nov 5.1 20:26:15 10° SW 20:32:03 40° WNW 20:32:41 39° WNW visible
30 Nov 6.3 05:38:24 10° NNE 05:43:11 22° ENE 05:47:55 10° ESE visible
30 Nov 4.1 19:05:03 10° SSE 19:11:03 51° E 19:13:47 31° NNE visible
30 Nov 6.0 20:51:52 10° WSW 20:56:38 23° WNW 20:58:29 20° NW visible
01 Dec 5.4 06:01:57 10° N 06:07:47 39° ENE 06:13:34 10° SE visible
01 Dec 5.6 17:48:50 10° E 17:50:56 12° E 17:53:03 10° ENE visible
01 Dec 3.9 19:29:00 10° S 19:35:15 89° W 19:39:39 21° N visible
01 Dec 6.7 21:19:01 10° W 21:21:26 12° WNW 21:23:53 10° NW visible
02 Dec 4.3 06:25:57 10° N 06:32:12 71° E 06:38:24 10° SSE visible
02 Dec 5.0 18:10:05 10° SE 18:14:46 23° E 18:19:28 10° NE visible
02 Dec 4.7 19:53:35 10° SSW 19:59:37 50° W 20:05:36 10° N visible
03 Dec 6.5 05:06:31 10° NNE 05:10:39 18° ENE 05:14:44 10° ESE visible
03 Dec 4.0 06:50:17 10° NNW 06:56:28 65° W 07:02:36 10° S visible
03 Dec 4.3 18:32:59 10° SSE 18:38:45 41° E 18:44:33 10° NNE visible
03 Dec 5.7 20:18:52 10° SW 20:24:08 28° WNW 20:29:27 10° NNW visible
